Starlink 31434

operational
NORAD ID: 59215 Int'l Des: 2024-046 Owner: SPXS Country: US Constellation: starlink
LEOCIRCULAR

Starlink 31434について

説明を読み込み中...

リアルタイム位置

3D地球を読み込み中...

次回通過

高度履歴

Altitude vs Time

uPlot chart will show altitude changes over time

軌道要素

1 59215U 24046Q 25353.21736327 -.00000056 00000-0 10228-4 0 9996
2 59215 53.1587 168.7843 0001403 95.0183 265.0978 15.30187716100720
Epoch: Dec 19, 2025 • Age: 12 hours

現在のステータス

高度 494.2 km
速度 7.62 km/s
衛星直下点 -51.91°S, 104.73°E
打ち上げ日 Mar 11, 2024
運用期間 1.7 years
タイプ internet

技術仕様

分類 Payload
質量 730.00 kg
乾燥質量 700.00 kg
総質量 730.00 kg
長さ 0.30 m
直径 4.10 m
スパン 29.00 m
形状 Box + pan
製造者 SPXS
バスタイプ Starlink V2M
フェーズステータス In Orbit
所有者/国 SPXS/US

大規模コンステレーション

Loading constellations...